Погода в Бухаре

Погода в Бухаре : погода сейчас, прогноз погоды и архив. Всё, что Вы хотите узнать о погоде в Бухаре!

Поиск расширенной информации на нашем сайте:

Другие новости

Новости СМИ2

Главная страница сайта

Новости сайта

02.10.2013

Напоминаем, что на нашем новом сайте вы можете получить высокодетализированные прогнозы погоды по пунктам России, СНГ и мира (включающие важные для авиации метеовеличины, такие как направление и скорость ветра, видимость, явления погоды, количество и форма облачности, нижняя и верхняя граница облачности), а также ознакомиться с разнообразными материалами по авиационной метеорологии и подборкой полезных ссылок на эту тему.

Сайт Метеоцентр.Азия посвящён разработке технологий оптимизации авиаметеорологического обслуживания, включая проектирование и перспективное создание нескольких автоматизированных авиаметеорологических систем:
- система выпуска высокодетальных прогностических карт явлений погоды для нижнего воздушного пространства по России и ближнему зарубежью;
- система верификации прогнозов TAF (выпускаемых синоптиками официальных АМСГ РФ и ближнего зарубежья) и AUTOTAF (выпускаемых сайтом Метеоцентр.Азия) - выявление ошибок, онлайн-сопоставление с фактической погодой METAR, автоматическое внесение коррективов в прогнозы при резком отклонении фактической погоды от прогноза, подсчёт оправдываемости прогнозов по элементам и в целом;
- система обработки, анализа и отображения авиаметеорологической информации для применения провайдерами метеорологической информации.

Рекомендуем: купить сейф для денег

Погода в Бухаре - сегодня

Время (UTC), дата Ветер
(°,м/с) 
Видим.   Явления Облачность Т
(°С)
Тd
(°С)
f(%) Тe
(°С)
Pmin
(гПа)
dP
(гПа)
Po
(мм)
O2
(г/м3)
Тmin Tmax R s Состояние
почвы
12 22.04.17 050 (СВ) 10 км    ясно 
+23.8 +2.9 26 +24  1018.4  -1.2  744  275           
15 22.04.17 тихо ()   10 км    ясно 
+21.1 +3.6 32 +21  1018.5  -0.1  744  278    +24.1       
18 22.04.17 360 (С) 10 км    ясно 
+17.2 +6.2 48 +18  1019.9  745  281    +24.1       
21 22.04.17 090 (В) 10 км    ясно 
+14.2 +7 62 +15  1019.6  -0.6  744  284           
00 23.04.17 тихо ()   10 км    3/0 верхняя 
[Ci fib]
+12.2 +6.1 66 +12  1019.9  0.1  745  286           
03 23.04.17 110 (В) 10 км    ясно 
+15.7 +8 60 +16  1021.8  2.2  746  283           
06 23.04.17 360 (С) 10 км    ясно 
+24.5 +6.5 31 +25  1021.7  0.7  747  275  +11.4         
09 23.04.17 070 (В) 10 км    ясно 
+26 +3.4 23 +26  1020.4  -1.1  746  274           
12 23.04.17 020 (С) 10 км    1/0 верхняя 
[Ci fib]
+27 +1.5 19 +27  1018.6  -1.7  745  273           
15 23.04.17 020 (С) 10 км    4/0 верхняя 
[Ci fib]
+22.4 +4.3 31 +22  1018.6  -0.4  744  277    +27.5       
18 23.04.17 360 (С) 10 км    ясно 
+17.3 +5.6 46 +18  1018.7  -0.4  744  281    +27.5       
21 23.04.17 тихо ()   10 км    ясно 
+15.5 +5.8 52 +16  1017.2  -1.5  743  282           
00 24.04.17 тихо ()   10 км    ясно 
+13.8 +7.7 67 +14  1015.5  -1.9  741  283           
03 24.04.17 050 (СВ) 10 км    ясно 
+18 +8.8 55 +19  1015.1  741  279           
06 24.04.17 050 (СВ) 10 км    ясно 
+26.4 +5.1 26 +26  1013.4  -0.9  741  271  +11.9         
09 24.04.17 090 (В) 10 км    ясно 
+29 +2.5 18 +29  1010.9  -2.2  739  269           
12 24.04.17 090 (В) 10 км    ясно 
+29.7 +2.5 18 +30  1009.2  -1.6  738  268           
15 24.04.17 140 (ЮВ) 10 км    ясно 
+25.5 +4.8 26 +26  1010  0.4  738  271    +29.9       
18 24.04.17 тихо ()   10 км    ясно 
+19 +7.4 47 +19  1011.4  0.8  739  277    +29.9       
21 24.04.17 тихо ()   10 км    ясно 
+16.5 +8.9 61 +17  1010.9  -0.7  738  279           
00 25.04.17 тихо ()   10 км    ясно 
+15.4 +7.8 60 +15  1011.3  0.3  739  280           
03 25.04.17 050 (СВ) 10 км    ясно 
+19.6 +9.9 53 +22  1012.4  1.4  740  276           
06 25.04.17 360 (С) 10 км    3/0 верхняя 
[Ci fib]
+25.9 +8.1 32 +26  1012.1  0.3  740  271  +13.5         
09 25.04.17 тихо ()   10 км    10/0 верхняя 
[Cs]
+30.3 +3.4 18 +30  1011  -0.8  739  268           
12 25.04.17 360 (С) 10 км    6/0 верхняя 
[Ci fib]
+30.5 +5.1 20 +31  1009.7  -1.1  738  267           
Время (UTC), дата Ветер
(°,м/с) 
Видим.   Явления Облачность Т
(°С)
Тd
(°С)
f(%) Тe
(°С)
Pmin
(гПа)
dP
(гПа)
Po
(мм)
O2
(г/м3)
Тmin Tmax R s Состояние
почвы

Для получения пояснительной информации подведите курсор к названию столбца.

ПОГОДА в Бухаре - архив

Всё, что Вы хотите узнать о погоде в Бухаре - удобно и подробно!

Выберите нужную дату (начиная с 1 января 2015* года) и нажмите кнопку "Найти".
Будут отображены архивные сводки погоды по пункту Бухара, начиная с указанной даты.


Отображать данные в формате CSV (для использования в таблицах Excel)


Внимание! Наш архив погоды предназначен исключительно для личного некоммерческого использования в познавательных целях. Если Вам необходимы официальные справки о состоянии погоды (для производственных, юридических, коммерческих и т.п. целей), обращайтесь в органы Росгидромета.

*Примечание: данная дата относится к архиву по метеостанциям СССР (Россия, СНГ, Балтия).
Архив по метеостанциям Зарубежной Европы и Азии (кроме Китая) хранится 10 дней, по другим регионам земного шара (Китай, Африка, Америка, Австралия, Океания) - 1 день.

Бухара - район местоположения метеостанции


Название, широта, долгота, высота метеостанции:
Бухара 39.7°ш. 64.6°д. 226 м над ур. моря [Узбекистан]

Дополнительная информация

В oтличие oт бoльшинства пoгoдных сайтoв мы публикуем пoдрoбную метеoинфoрмацию в детальнoм прoфессиoнальнoм фoрмате.

Характеристики температуры и влажнoсти вoздуха измеряются на высoте 2 м в тени вдали oт зданий и деревьев.
Скoрoсть ветра измеряется на высoте 10 м (на урoвне рoста челoвека скoрoсть ветра ниже в 1.5-2 раза). Если метеoстанция нахoдится в гoрoде или в лесу, тo скoрoсть ветра занижена на 2-4 м/с пo сравнению с oткрытым местoм. Скoрoсть ветра над акватoриями крупных рек и oзёр, а также на вершинах хoлмoв на 2-5 м/с выше, чем в oбычных услoвиях.
Атмoсфернoе давление в разных тoчках местнoсти мoжет значительнo oтличаться oт давления на метеoстанции, в зависимoсти oт услoвий рельефа (при пoдъёме на 10 м давление пoнижается примернo на 1 мм рт.ст.).